Temperature
21 19 19 20 24 28 31 32 32 32 32 31 30 31 31 31 30 29 23 23 22 21 21 22 21 21 21 20 20 20 20 20 20 20 20 20 20 20 20 19 19 19 19 19 19 19 19 19 19
20 19 19 23 28 31 31 32 31 31 31 30 30 30 30 30 27 24 22 22 21 21 21 21 21 21 21 20 20 20 20 20 20 20 20 20 20 20 20 20 19 19 19 19 19 19 19 19 19
19 19 23 28 31 31 31 32 31 31 30 30 30 30 30 28 25 23 22 22 21 21 20 21 21 21 21 21 20 20 20 20 20 20 20 20 20 20 20 20 19 19 19 19 19 19 19 20 19
20 22 25 29 31 32 32 32 32 32 31 30 30 30 28 24 24 23 22 22 21 20 20 21 21 21 20 20 20 20 20 20 20 20 20 20 20 20 20 20 19 19 19 19 20 20 20 20 19
21 26 30 32 32 32 33 32 31 32 32 31 30 31 28 23 23 23 23 22 21 21 20 20 21 20 20 20 20 20 20 20 20 20 20 20 20 20 20 20 19 19 19 19 19 19 19 19 19
25 29 31 32 32 32 33 31 32 32 31 31 30 31 27 23 23 23 22 22 21 21 20 19 20 20 20 20 20 20 20 20 20 20 20 20 20 20 20 19 19 19 19 19 19 19 19 19 19
28 30 31 32 32 32 32 32 32 32 32 31 30 31 28 24 23 23 22 22 21 21 20 19 19 19 20 20 20 20 20 20 20 20 20 20 20 19 19 19 19 19 19 19 19 19 19 19 19
27 31 31 32 31 32 32 32 32 31 31 29 30 31 29 24 23 22 21 21 21 20 20 19 18 18 18 19 19 20 20 20 20 20 20 20 20 20 19 19 19 19 19 19 19 19 19 19 19
26 30 31 32 32 32 32 32 32 30 30 29 28 28 27 24 23 22 21 21 20 20 19 19 19 18 18 18 19 19 20 20 20 20 20 20 19 19 19 19 19 19 19 19 19 19 19 18 18
28 30 31 32 32 32 31 31 31 31 31 29 27 25 23 23 23 22 21 21 20 19 19 19 19 18 18 18 18 18 18 19 19 19 19 19 18 18 18 18 19 19 19 19 19 18 18 18 17
29 30 31 31 30 30 31 31 29 31 30 27 26 25 23 22 22 22 22 21 20 20 19 19 19 19 18 18 18 19 18 18 18 18 18 18 18 18 18 18 18 19 19 18 18 18 18 17 18
29 30 30 30 30 30 30 30 28 27 25 24 24 24 23 22 22 22 21 21 20 20 19 19 19 18 19 19 19 18 18 18 18 18 18 18 18 18 18 18 18 18 18 17 18 18 18 18 18
29 30 29 29 29 28 28 28 26 24 22 22 22 22 22 22 22 21 21 20 19 19 19 19 19 18 19 19 19 19 18 18 18 18 18 17 17 18 18 18 18 18 18 18 17 17 17 17 17
29 29 29 29 28 27 28 26 25 22 21 20 20 20 20 20 20 20 19 19 19 18 18 18 18 18 19 19 19 19 18 18 18 17 17 17 17 17 17 17 17 18 18 18 17 17 17 17 17
28 29 29 29 28 28 28 26 23 21 20 20 19 18 17 18 18 18 18 18 18 18 18 17 18 18 18 18 17 17 17 17 17 17 17 17 17 17 17 17 17 17 17 17 17 17 17 17 17
29 29 29 28 28 27 28 26 22 20 20 19 18 17 17 16 17 17 17 17 17 17 17 17 17 17 17 17 17 17 17 17 17 17 17 17 17 17 17 17 17 17 17 17 17 17 17 17 17
30 30 29 28 27 28 28 25 21 20 20 19 18 17 16 16 16 16 16 16 16 17 17 17 17 17 17 17 17 17 17 17 16 16 16 16 16 16 16 16 17 17 17 17 17 17 17 17 17
29 30 29 28 27 27 26 23 22 20 20 19 18 17 17 16 16 16 16 16 16 16 16 17 17 17 17 16 16 16 16 16 16 16 16 16 16 16 16 16 16 16 16 16 17 17 16 17 17
29 29 28 27 26 26 24 23 22 21 20 19 19 18 17 16 16 15 15 16 16 16 16 16 17 16 16 16 16 16 16 16 16 16 16 16 16 16 16 16 16 16 16 16 16 16 16 16 16
29 28 28 26 25 25 24 23 22 22 20 19 19 18 17 17 16 16 16 16 16 16 16 16 16 16 16 16 16 16 16 15 15 15 15 15 15 15 15 15 15 15 16 16 16 16 16 16 16
29 29 28 27 25 25 25 24 23 22 21 20 19 18 18 17 17 17 16 16 16 16 16 16 16 16 16 16 16 15 15 15 15 15 15 15 15 15 15 15 15 15 15 15 16 16 16 16 16
28 29 28 27 26 27 26 25 24 23 23 22 20 20 19 18 18 17 17 16 16 16 16 16 16 16 16 15 15 15 15 15 15 14 14 14 15 15 15 15 15 15 15 15 15 15 15 15 16
28 28 28 27 27 27 26 26 24 24 23 22 21 20 19 19 18 17 17 17 16 16 16 15 15 15 15 15 15 15 15 15 15 14 14 14 14 14 14 14 14 14 14 15 15 15 15 15 16
27 27 27 27 28 26 26 26 24 24 23 23 22 20 19 19 18 18 17 17 16 16 15 15 15 14 15 14 14 14 14 14 14 13 14 14 14 13 13 13 14 14 14 14 15 15 15 15 15
28 27 26 26 26 26 25 25 23 22 22 22 21 20 19 19 18 18 17 17 16 16 15 15 14 14 14 13 13 13 13 13 13 13 13 13 13 13 13 13 13 13 13 13 13 14 14 14 14
27 27 26 25 26 26 25 24 22 21 21 20 20 20 19 19 18 18 17 17 16 15 15 14 14 13 13 13 12 12 12 12 13 13 13 13 13 13 13 12 12 12 12 12 12 13 13 13 14
27 27 27 27 26 25 25 23 21 21 21 21 20 20 19 19 18 18 17 16 16 15 14 13 13 12 12 12 12 12 11 11 12 11 11 12 12 12 12 12 12 11 12 12 12 12 12 12 13
27 27 27 26 24 24 25 24 23 22 22 21 21 20 19 18 18 17 16 16 15 14 13 13 12 12 11 11 11 11 11 11 10 11 11 11 11 11 11 11 11 11 11 11 11 11 11 12 12
26 26 26 26 25 24 24 24 23 22 21 21 21 19 18 18 17 16 15 15 14 13 13 12 12 11 11 10 10 10 10 10 10 10 10 10 10 10 10 10 11 11 11 11 11 11 11 11 11
26 25 25 25 24 24 24 24 22 22 21 20 19 19 18 17 16 15 15 14 13 13 12 12 11 11 10 10 9 9 9 9 9 9 9 9 9 9 9 10 10 10 10 10 10 10 10 10 10
Wind_Speed
19 16 9 5 5 5 3 6 5 5 3 2 1 2 4 5 6 4 4 12 17 21 23 23 20 19 17 16 15 15 15 15 16 16 15 15 14 14 13 12 11 10 9 8 8 8 8 8 8
16 12 6 5 5 3 5 5 6 6 4 1 1 2 4 3 5 4 7 14 19 20 22 21 21 19 17 16 15 15 14 15 15 15 14 14 13 13 12 11 11 10 9 8 8 7 7 8 8
14 9 4 5 4 6 6 6 5 3 1 2 1 2 4 4 4 4 9 17 19 19 19 21 22 19 18 16 15 15 14 14 14 14 13 13 12 12 12 11 10 10 9 9 8 8 7 8 8
8 6 5 7 5 4 6 6 4 3 1 1 2 2 4 6 3 8 15 18 19 19 19 21 21 19 18 16 15 15 14 13 13 13 12 12 12 11 11 11 10 10 9 8 8 8 8 8 8
6 5 7 7 4 4 5 6 5 5 3 2 1 3 5 6 8 14 16 18 19 18 17 21 20 19 17 16 15 14 14 13 13 12 12 12 11 11 11 11 10 9 9 9 8 8 8 8 8
5 5 8 7 4 4 4 5 5 4 3 1 1 3 5 7 10 14 16 16 17 17 16 19 19 18 17 16 15 14 14 13 13 12 12 11 11 11 10 10 10 10 9 9 9 9 9 9 9
7 7 10 9 6 3 4 7 5 5 3 2 1 2 7 10 12 14 15 14 15 15 14 16 17 16 15 14 14 14 13 13 12 12 11 11 10 10 10 10 10 11 11 10 10 10 10 11 11
7 6 11 8 6 3 5 7 5 5 3 3 1 1 6 12 14 15 14 14 14 14 13 13 14 14 14 14 14 13 13 13 12 12 12 12 12 12 12 12 13 12 12 12 12 12 12 12 13
5 8 12 8 6 4 7 9 6 3 2 3 4 6 8 17 17 16 14 13 13 12 12 12 12 12 12 12 13 14 14 14 14 14 15 14 14 15 15 17 14 14 14 14 14 14 14 14 16
8 12 11 5 6 8 8 8 8 4 1 4 5 8 11 16 17 17 16 16 15 14 13 12 11 11 11 9 10 11 12 13 14 13 14 15 14 13 13 11 13 15 16 16 16 16 16 17 15
9 12 8 6 6 8 8 6 7 6 4 8 6 2 10 13 15 16 15 15 15 15 14 13 12 11 10 8 8 7 8 8 12 14 13 13 12 12 12 11 12 15 17 16 16 17 16 16 14
10 10 9 8 7 7 7 5 4 9 8 10 6 2 8 11 11 12 13 13 13 14 13 12 11 10 9 8 6 6 7 6 8 10 13 13 10 10 10 10 11 11 11 12 12 11 14 14 14
11 10 7 7 7 4 2 2 3 9 10 10 8 6 5 5 7 7 9 10 11 11 11 10 9 8 7 7 6 6 6 7 10 10 12 14 11 11 11 9 10 12 12 11 11 12 12 12 13
6 7 7 6 3 2 4 5 4 8 8 9 10 10 9 8 7 6 6 6 7 7 7 7 7 6 5 5 5 5 7 8 11 11 13 14 14 11 12 11 11 11 13 13 11 12 11 11 10
7 7 5 1 2 5 6 6 7 8 7 9 10 11 12 11 9 7 6 4 3 3 3 3 3 3 3 5 6 7 8 10 10 11 13 15 16 13 12 11 11 11 13 12 11 12 11 11 11
7 9 7 5 1 3 8 3 9 6 7 9 9 10 11 10 10 8 7 6 5 4 2 1 1 2 4 5 6 7 8 10 10 11 12 14 15 15 12 12 11 10 10 9 10 10 10 10 10
7 5 5 6 6 2 2 6 7 7 8 8 8 8 9 9 9 8 7 7 6 5 3 2 2 3 4 5 6 7 7 8 9 10 10 11 13 14 11 9 8 9 8 9 10 9 9 10 9
2 3 3 4 6 6 8 9 7 7 7 8 7 7 7 7 8 7 6 6 5 4 3 2 2 3 4 5 5 6 7 7 6 6 7 9 9 10 8 7 8 9 8 8 9 9 8 8 8
1 2 2 5 4 5 8 9 7 6 7 7 7 7 6 7 6 6 6 5 5 4 3 3 3 3 4 4 5 6 6 6 5 5 6 7 7 7 6 6 6 6 7 8 9 9 10 9 7
4 4 3 5 5 3 7 8 7 6 7 6 7 7 7 7 7 6 5 5 4 4 4 3 2 3 4 4 5 5 6 6 5 5 5 6 6 6 5 5 5 6 6 8 9 9 8 8 7
5 4 2 4 6 7 8 8 7 7 7 6 6 6 6 6 6 5 5 5 4 4 3 3 3 4 5 6 5 5 5 5 5 6 5 6 6 5 5 5 6 5 6 7 8 8 9 8 7
3 0 3 6 8 5 8 3 8 7 6 5 5 5 5 4 4 3 3 3 3 2 2 3 4 5 5 6 6 8 8 8 8 6 6 6 5 5 5 5 6 6 6 6 7 7 7 9 8
2 1 4 7 8 5 6 5 8 7 5 5 4 3 2 2 1 1 1 2 3 4 4 5 6 7 7 7 7 8 9 9 8 7 6 6 5 4 4 5 5 5 5 6 7 6 8 8 9
1 3 5 8 9 7 2 5 6 4 3 3 2 1 1 1 2 3 4 4 6 6 7 8 8 9 9 9 9 10 11 11 11 10 9 7 6 4 4 4 4 5 5 6 6 7 9 9 10
4 6 6 6 6 2 2 3 6 5 3 1 1 1 2 3 4 5 7 8 9 10 11 11 11 11 11 11 11 11 12 12 13 13 11 10 9 7 5 4 4 4 4 5 6 7 8 10 11
3 6 6 7 6 2 3 1 6 4 2 1 2 3 4 5 6 8 9 11 11 12 12 12 13 13 13 13 13 13 13 13 13 12 13 13 11 10 7 7 6 6 5 5 5 6 8 8 10
3 4 6 7 6 6 1 5 6 4 1 1 3 4 6 7 9 10 11 12 12 12 13 13 14 14 15 15 15 14 14 13 14 14 14 14 12 11 11 10 9 8 8 7 6 6 7 8 10
5 4 4 5 6 6 3 2 3 2 4 4 5 7 8 10 11 12 12 12 12 13 14 14 15 15 16 16 16 14 15 15 15 15 15 15 15 14 14 13 13 12 11 10 9 8 7 7 9
4 3 4 4 5 7 7 3 5 5 5 7 7 8 10 12 14 14 13 13 14 15 16 16 16 17 17 17 16 16 16 16 16 16 16 15 15 15 15 16 15 15 14 12 11 11 9 10 9
5 5 5 5 4 5 8 3 7 4 6 7 9 10 12 13 14 15 15 15 16 17 17 18 18 18 18 17 17 17 17 17 17 17 17 16 16 16 16 16 17 17 16 15 14 13 12 11 11
Wind_Direction
155 161 173 193 235 230 37 41 19 16 20 19 353 268 312 322 329 4 87 147 150 149 148 154 157 159 160 159 157 156 157 160 162 162 160 158 157 157 157 158 159 159 156 150 143 137 132 129 129
157 160 185 227 266 341 57 38 22 21 27 28 214 263 297 359 32 77 124 144 151 150 151 157 156 160 161 161 160 159 159 160 161 163 163 162 160 160 161 162 163 164 160 155 152 147 142 139 139
158 184 237 252 287 350 11 21 10 11 3 314 335 339 350 25 69 108 131 148 151 150 152 152 157 161 162 163 163 163 163 164 165 166 167 166 166 166 167 167 169 167 164 162 162 159 155 153 152
169 210 237 257 296 4 351 355 348 330 6 339 321 66 77 44 64 117 138 150 151 152 156 152 161 162 164 166 167 167 167 168 169 171 172 172 174 175 176 175 174 172 172 172 174 173 170 169 168
220 248 254 259 299 359 357 351 324 320 346 23 354 67 87 74 96 126 144 152 154 156 157 155 163 164 166 168 170 171 172 173 175 177 179 180 181 183 185 185 183 184 185 186 186 187 184 184 186
225 247 266 284 332 351 9 359 325 331 339 8 47 90 95 112 127 138 147 156 158 158 158 153 163 166 168 171 173 176 178 180 182 184 186 189 190 193 196 197 196 197 198 200 201 201 199 199 201
260 262 275 289 303 318 8 347 334 337 337 4 7 78 118 133 136 143 148 156 159 161 158 158 167 170 172 175 177 180 183 186 189 192 195 198 201 205 209 210 211 211 211 212 213 214 213 212 212
263 267 264 267 279 305 358 339 344 330 9 40 332 10 125 143 144 144 148 156 160 163 163 163 170 172 178 180 182 186 190 194 197 201 204 207 211 215 218 222 216 222 223 222 222 223 223 222 221
244 251 260 268 282 308 349 339 346 349 47 61 45 35 94 138 146 148 151 158 163 167 168 171 171 175 184 188 180 190 196 202 205 208 210 214 220 219 214 223 215 221 229 230 230 229 229 229 226
227 250 261 286 299 312 331 335 341 311 59 58 59 81 122 145 154 158 161 165 169 172 175 176 179 177 189 194 187 204 208 204 215 219 214 217 224 230 232 209 212 226 233 236 236 237 236 234 233
230 252 269 267 287 306 310 335 1 333 359 1 345 126 151 160 167 168 168 170 171 175 181 182 184 184 194 199 205 213 222 220 224 229 228 232 234 231 231 229 216 224 230 235 230 230 234 233 234
240 248 261 275 295 298 303 316 8 24 8 1 6 128 160 170 174 174 171 170 171 179 184 188 186 193 204 215 222 229 234 235 242 235 236 236 235 238 235 233 235 229 228 231 239 235 234 239 239
238 249 256 277 281 286 306 51 61 34 23 31 53 86 115 149 161 166 166 167 173 182 187 190 190 196 208 219 238 244 251 258 254 255 246 248 245 241 240 237 238 242 239 232 234 242 242 242 242
250 260 268 278 261 199 136 90 61 27 26 50 61 64 65 70 85 109 132 156 172 182 187 192 199 206 223 240 249 255 264 262 266 263 257 253 254 250 246 243 241 242 243 243 242 242 243 243 244
257 247 210 127 178 167 164 88 43 28 49 63 66 67 65 64 65 71 80 92 109 144 168 196 208 228 260 278 282 277 276 275 272 269 262 257 254 254 251 248 244 245 245 242 243 247 246 243 242
225 216 180 88 79 178 232 100 48 38 68 69 70 71 70 64 62 60 61 61 61 63 63 11 297 288 288 291 288 284 284 283 278 274 268 261 259 258 256 253 251 250 245 239 240 241 241 240 241
201 191 144 106 52 120 160 90 62 52 72 73 70 71 71 68 60 56 58 63 59 52 37 17 339 313 296 288 280 279 278 280 282 281 279 276 272 264 259 255 259 256 246 239 243 237 237 239 236
161 159 137 98 68 91 97 98 81 69 75 78 77 74 72 65 56 57 60 65 64 57 43 27 2 338 311 300 288 285 287 291 289 289 290 289 286 278 270 261 257 252 243 237 235 239 236 246 242
282 230 130 97 103 88 101 101 91 88 81 79 75 75 76 74 74 73 74 72 71 64 54 30 5 346 325 323 316 315 311 308 303 299 305 302 298 293 283 275 265 254 245 239 235 233 229 233 233
221 212 152 125 134 139 126 112 102 90 84 79 82 81 83 89 88 80 80 81 74 62 44 30 5 356 336 342 321 314 316 313 315 309 309 314 314 313 300 290 281 264 253 241 235 230 236 231 216
233 255 205 162 158 167 160 145 133 117 110 106 99 96 91 88 86 86 82 78 72 59 36 20 359 344 344 335 325 325 313 307 319 321 319 329 332 332 320 296 279 264 255 245 236 227 229 234 223
250 302 224 186 200 198 223 205 142 142 136 121 112 107 103 100 91 85 82 68 53 33 8 351 338 337 335 326 333 332 328 329 330 322 323 323 329 331 328 310 291 268 254 251 244 237 236 237 233
357 350 221 215 239 233 215 255 137 155 150 135 122 110 109 101 81 54 1 343 338 332 331 329 329 325 324 321 314 308 312 318 317 316 310 305 305 308 317 317 308 294 274 260 249 247 239 235 239
159 205 207 224 237 236 208 270 135 135 118 122 133 142 207 272 296 302 306 308 312 317 319 321 322 318 315 310 307 301 302 302 303 301 300 293 293 291 291 293 296 292 288 277 265 249 240 242 243
251 268 258 239 236 218 131 256 94 83 70 43 329 279 276 287 298 306 310 314 315 317 321 322 321 317 316 311 307 302 297 292 284 284 287 285 285 278 266 268 271 281 280 278 272 259 252 243 239
337 309 314 308 314 325 180 164 100 84 68 352 305 300 298 300 304 305 309 312 315 319 323 324 324 320 317 312 308 303 296 289 289 288 289 286 282 278 273 255 246 243 249 258 260 264 260 254 246
326 351 336 296 291 289 165 122 127 129 90 328 312 307 309 313 313 312 316 317 320 322 322 321 319 316 314 312 307 297 295 295 295 292 280 277 274 270 261 252 246 242 236 236 241 250 255 258 254
28 354 315 321 326 313 296 210 131 92 350 332 321 321 322 320 318 319 319 318 319 317 316 316 314 313 312 309 308 306 305 298 293 289 288 284 280 274 267 258 251 244 237 232 233 242 241 246 254
20 21 353 335 339 320 322 25 79 17 339 322 321 321 321 322 322 321 319 319 317 315 315 316 315 314 312 310 309 305 301 299 296 289 284 281 277 273 266 260 253 248 243 235 231 239 239 238 243
48 24 359 338 344 319 310 7 104 8 322 312 313 318 322 322 320 318 318 319 317 317 318 316 315 313 311 310 307 303 301 298 294 291 289 286 280 273 266 260 255 249 244 238 233 234 235 237 239
Height
1521 1523 1526 1529 1525 1511 1500 1495 1492 1492 1490 1493 1495 1494 1493 1493 1496 1503 1506 1504 1507 1510 1512 1515 1519 1522 1525 1528 1531 1533 1536 1538 1540 1542 1544 1545 1546 1548 1549 1550 1551 1552 1553 1555 1556 1557 1557 1558 1559
1523 1525 1529 1527 1513 1502 1500 1495 1494 1494 1495 1496 1496 1496 1495 1496 1501 1504 1504 1505 1508 1511 1514 1517 1520 1523 1526 1529 1532 1534 1536 1538 1540 1542 1544 1546 1547 1548 1549 1550 1552 1553 1554 1555 1556 1557 1558 1559 1560
1525 1527 1527 1516 1503 1502 1500 1494 1495 1495 1496 1497 1496 1497 1498 1500 1504 1505 1505 1506 1510 1513 1516 1518 1521 1524 1527 1530 1532 1535 1537 1539 1541 1543 1544 1546 1547 1548 1549 1551 1552 1553 1554 1556 1557 1558 1559 1560 1560
1526 1528 1524 1512 1501 1496 1495 1494 1495 1494 1495 1497 1497 1497 1501 1505 1505 1505 1505 1508 1512 1515 1518 1519 1522 1525 1528 1531 1533 1536 1538 1540 1541 1543 1544 1546 1547 1548 1550 1551 1552 1553 1554 1556 1557 1558 1559 1560 1561
1527 1523 1512 1502 1496 1494 1494 1495 1495 1493 1494 1496 1497 1497 1502 1506 1505 1506 1508 1511 1514 1517 1521 1521 1524 1526 1529 1532 1534 1536 1538 1540 1541 1543 1544 1546 1547 1548 1549 1551 1552 1553 1554 1556 1557 1558 1559 1560 1561
1525 1517 1508 1501 1496 1495 1494 1496 1494 1493 1494 1496 1497 1497 1504 1506 1507 1509 1511 1514 1517 1520 1523 1523 1525 1527 1530 1532 1535 1536 1538 1540 1541 1543 1544 1545 1547 1548 1549 1550 1551 1552 1554 1555 1556 1557 1558 1559 1559
1521 1510 1504 1500 1499 1496 1495 1496 1494 1494 1494 1496 1497 1497 1504 1508 1509 1511 1513 1516 1519 1522 1524 1525 1527 1529 1531 1533 1535 1537 1538 1540 1541 1543 1544 1545 1546 1547 1548 1549 1550 1551 1552 1553 1554 1555 1556 1557 1558
1519 1510 1502 1498 1499 1497 1496 1495 1495 1495 1495 1499 1499 1497 1502 1508 1509 1511 1514 1517 1520 1523 1526 1527 1529 1530 1532 1534 1535 1537 1538 1540 1541 1542 1543 1544 1545 1546 1547 1548 1549 1550 1551 1551 1552 1553 1554 1555 1555
1518 1511 1502 1497 1498 1495 1496 1496 1495 1496 1497 1499 1501 1502 1504 1505 1508 1511 1514 1517 1520 1523 1525 1527 1529 1531 1533 1535 1535 1536 1538 1539 1540 1541 1541 1542 1543 1545 1545 1546 1546 1547 1548 1549 1550 1551 1551 1552 1552
1513 1506 1498 1497 1498 1497 1497 1497 1497 1494 1495 1499 1502 1504 1504 1505 1507 1510 1513 1516 1518 1520 1523 1525 1528 1529 1532 1534 1535 1536 1538 1538 1538 1540 1540 1541 1542 1543 1544 1544 1543 1544 1545 1546 1547 1547 1548 1548 1550
1506 1502 1498 1499 1500 1500 1498 1498 1499 1496 1496 1502 1503 1504 1506 1507 1508 1510 1512 1514 1517 1519 1521 1524 1526 1528 1530 1532 1534 1536 1537 1537 1537 1538 1538 1539 1539 1539 1540 1541 1541 1541 1542 1543 1544 1544 1545 1546 1547
1504 1501 1502 1500 1500 1500 1499 1499 1501 1503 1506 1506 1505 1505 1506 1508 1509 1511 1513 1515 1516 1518 1520 1523 1525 1527 1529 1531 1533 1533 1534 1534 1535 1535 1534 1535 1535 1535 1536 1536 1538 1538 1538 1539 1540 1540 1541 1541 1542
1502 1500 1500 1500 1500 1500 1501 1502 1504 1508 1509 1507 1506 1507 1508 1509 1511 1513 1515 1516 1517 1519 1521 1523 1524 1525 1527 1528 1529 1530 1530 1530 1531 1530 1530 1531 1531 1531 1532 1531 1531 1533 1534 1534 1534 1535 1536 1536 1537
1498 1499 1499 1499 1498 1500 1501 1503 1506 1511 1511 1510 1509 1509 1510 1511 1512 1513 1515 1516 1517 1519 1520 1522 1522 1523 1525 1526 1525 1526 1526 1526 1526 1526 1526 1525 1525 1525 1525 1525 1526 1526 1528 1529 1530 1530 1530 1531 1532
1500 1498 1495 1497 1497 1498 1499 1504 1512 1514 1513 1513 1512 1513 1513 1513 1514 1514 1515 1516 1517 1518 1519 1520 1521 1522 1522 1522 1523 1524 1523 1523 1522 1521 1520 1519 1518 1519 1519 1519 1520 1521 1522 1523 1523 1524 1525 1525 1526
1494 1492 1492 1496 1496 1498 1498 1505 1515 1515 1515 1515 1515 1516 1515 1515 1516 1516 1516 1516 1517 1517 1518 1519 1520 1520 1520 1520 1520 1520 1519 1518 1517 1516 1514 1513 1512 1512 1512 1512 1513 1514 1515 1516 1517 1518 1520 1520 1521
1488 1488 1491 1496 1497 1496 1495 1508 1517 1517 1516 1517 1518 1518 1518 1518 1518 1517 1517 1517 1517 1518 1518 1518 1519 1519 1519 1518 1517 1516 1515 1513 1512 1510 1508 1507 1506 1505 1505 1505 1506 1506 1508 1509 1511 1513 1514 1516 1516
1490 1488 1492 1495 1499 1498 1502 1512 1517 1518 1518 1519 1520 1520 1520 1520 1519 1519 1518 1518 1518 1518 1518 1518 1518 1518 1517 1516 1514 1514 1513 1511 1508 1506 1504 1501 1499 1498 1497 1498 1499 1500 1501 1502 1505 1507 1509 1511 1512
1489 1490 1494 1498 1502 1503 1508 1513 1517 1519 1519 1520 1521 1521 1521 1521 1521 1520 1520 1519 1519 1519 1518 1518 1518 1517 1516 1515 1514 1513 1511 1508 1506 1503 1500 1497 1495 1493 1492 1492 1494 1494 1496 1497 1500 1502 1505 1506 1508
1490 1492 1495 1501 1504 1504 1510 1514 1516 1518 1520 1521 1522 1522 1523 1523 1523 1522 1521 1521 1520 1520 1519 1518 1518 1517 1515 1514 1512 1511 1508 1506 1504 1501 1498 1495 1493 1490 1489 1489 1489 1489 1491 1493 1496 1498 1501 1503 1504
1489 1490 1492 1498 1503 1503 1506 1513 1514 1517 1520 1522 1523 1523 1524 1524 1524 1523 1523 1522 1521 1520 1519 1519 1517 1516 1515 1513 1512 1510 1507 1505 1503 1499 1496 1493 1491 1489 1487 1486 1486 1486 1488 1490 1492 1494 1495 1499 1500
1491 1488 1490 1496 1500 1498 1501 1507 1511 1512 1516 1519 1522 1523 1524 1524 1524 1524 1523 1523 1522 1521 1519 1518 1516 1515 1513 1511 1510 1508 1507 1504 1501 1498 1495 1491 1489 1487 1485 1484 1484 1483 1485 1486 1488 1489 1492 1494 1496
1490 1490 1490 1492 1493 1495 1497 1499 1509 1509 1513 1516 1520 1522 1523 1524 1524 1524 1523 1522 1521 1520 1519 1517 1514 1512 1510 1508 1507 1505 1504 1502 1499 1496 1493 1490 1487 1485 1483 1482 1481 1481 1481 1483 1484 1486 1487 1490 1492
1491 1491 1491 1489 1488 1501 1497 1500 1511 1508 1512 1515 1519 1522 1523 1523 1523 1523 1522 1521 1520 1519 1517 1515 1512 1510 1507 1505 1503 1501 1499 1497 1495 1492 1490 1488 1486 1483 1481 1479 1478 1478 1477 1478 1479 1481 1482 1484 1487
1489 1493 1500 1502 1502 1502 1497 1500 1515 1513 1515 1517 1519 1520 1522 1522 1522 1521 1520 1519 1518 1516 1514 1512 1509 1506 1503 1501 1499 1497 1494 1492 1490 1488 1487 1484 1482 1480 1478 1476 1474 1474 1473 1473 1474 1475 1477 1479 1481
1491 1491 1503 1512 1506 1498 1498 1504 1515 1516 1518 1520 1520 1520 1520 1520 1520 1519 1518 1516 1514 1512 1510 1507 1504 1501 1499 1497 1494 1491 1489 1487 1486 1483 1481 1480 1478 1476 1474 1472 1471 1470 1469 1469 1470 1470 1471 1473 1475
1491 1491 1491 1495 1496 1502 1499 1508 1515 1516 1517 1518 1518 1519 1519 1518 1518 1517 1515 1513 1511 1509 1507 1504 1500 1497 1494 1491 1488 1485 1483 1481 1479 1476 1474 1474 1472 1471 1469 1468 1467 1466 1465 1465 1465 1465 1466 1467 1469
1494 1494 1493 1497 1511 1512 1503 1504 1510 1513 1514 1515 1516 1517 1517 1517 1516 1514 1512 1510 1508 1506 1503 1499 1496 1492 1489 1486 1482 1480 1477 1474 1472 1469 1468 1466 1465 1464 1463 1462 1462 1461 1461 1460 1460 1460 1460 1461 1462
1498 1497 1498 1497 1503 1512 1512 1508 1507 1512 1514 1514 1515 1515 1515 1515 1513 1512 1509 1507 1504 1501 1498 1494 1491 1487 1483 1479 1476 1472 1469 1467 1464 1462 1460 1458 1457 1456 1455 1455 1455 1455 1455 1455 1455 1455 1455 1455 1456
1500 1503 1502 1508 1511 1508 1509 1508 1508 1511 1513 1514 1514 1514 1514 1513 1511 1509 1506 1503 1500 1496 1493 1489 1485 1481 1477 1473 1469 1465 1462 1459 1456 1454 1452 1450 1448 1447 1447 1447 1447 1447 1448 1448 1448 1449 1450 1450 1450